This demonstration page uses our WeatherBlox Daily Observations layout. Learn more.

Left ArrowRight Arrow

39.29038, -76.61219

Hourly Observations for May 21, 2021

Temp ( °F °C ) Dew Point ( °F °C ) Humidity (%) Winds ( mph kmh ) Pressure ( in mb ) Visibility ( mi km ) Precip ( " mm )
12:54 am 00:54 Mostly Clear 61 16.1 48 8.9 63 63 N N/A 30.50 1033 10 16 N/A
1:54 am 01:54 Clear 62 16.7 44 6.7 52 52 N N/A 30.50 1033 10 16 N/A
2:54 am 02:54 Mostly Clear 57 13.9 47 8.3 69 69 N N/A 30.49 1033 10 16 N/A
3:54 am 03:54 Clear 56 13.3 47 8.3 72 72 N N/A 30.49 1033 10 16 N/A
4:54 am 04:54 Clear 54 12.2 47 8.3 77 77 N N/A 30.49 1033 10 16 N/A
5:54 am 05:54 Mostly Sunny 52 11.1 48 8.9 86 86 N N/A 30.50 1033 10 16 N/A
6:54 am 06:54 Mostly Sunny 56 13.3 49 9.4 77 77 N N/A 30.52 1033 10 16 N/A
7:54 am 07:54 Mostly Sunny 64 17.8 50 10 60 60 N N/A 30.53 1034 10 16 N/A
8:54 am 08:54 Mostly Sunny 69 20.6 44 6.7 41 41 N N/A 30.53 1034 10 16 N/A
9:54 am 09:54 Mostly Sunny 73 22.8 41 5 32 32 VRB 3 6 30.53 1034 10 16 N/A
10:54 am 10:54 Mostly Sunny 76 24.4 41 5 29 29 N N/A 30.53 1034 10 16 N/A
11:54 am 11:54 Mostly Sunny 78 25.6 42 5.6 28 28 N N/A 30.51 1033 10 16 N/A
12:54 pm 12:54 Mostly Sunny 82 27.8 45 7.2 27 27 VRB 3 6 30.50 1033 10 16 N/A
1:54 pm 13:54 Mostly Sunny 82 27.8 46 7.8 28 28 W 3 6 30.48 1032 10 16 N/A
2:54 pm 14:54 Mostly Sunny 85 29.4 48 8.9 28 28 SSW 3 6 30.46 1032 10 16 N/A
3:54 pm 15:54 Partly Cloudy 86 30 49 9.4 28 28 WSW 6 9 30.43 1030 10 16 N/A
4:54 pm 16:54 Partly Cloudy 84 28.9 49 9.4 30 30 SSE 9 15 30.42 1030 10 16 N/A
5:54 pm 17:54 Partly Cloudy 82 27.8 48 8.9 31 31 VRB 6 9 30.42 1030 10 16 N/A
6:54 pm 18:54 Partly Cloudy 80 26.7 48 8.9 33 33 SSE 7 11 30.41 1030 10 16 N/A
7:54 pm 19:54 Mostly Cloudy 77 25 48 8.9 36 36 S 3 6 30.40 1030 10 16 N/A
8:54 pm 20:54 Partly Cloudy 75 23.9 49 9.4 40 40 N N/A 30.41 1030 10 16 N/A
9:54 pm 21:54 Partly Cloudy 70 21.1 50 10 49 49 N N/A 30.40 1030 10 16 N/A
10:54 pm 22:54 Mostly Clear 70 21.1 51 10.6 51 51 SW 6 9 30.39 1029 10 16 N/A
11:54 pm 23:54 Partly Cloudy 67 19.4 50 10 55 55 WSW 3 6 30.39 1029 10 16 N/A

Powered by AerisWeather